[[{"header":{"parameterUnit":"m.s-1","parameterCategory":1,"la1":30.2991,"la2":30.254,"lo1":-89.0895,"lo2":-89.0444,"dy":0.0017,"dx":0.0017,"nx":28,"ny":28,"refTime":"2024-03-01T09:00:00:Z","depth":0,"parameterNumber":2,"parameterNumberName":"U-component_of_WINDS"},"data":[0,0,0,0,0,0,0,0,0,0,0,0,0,0,0,0,0,0,0,0,0,0,0,0,0,0,0,0,0,0,0,0,0,0,0,0,0,0,0,0,0,0,0,0,0,0,0,0,0,0,0,0,0,0,0,0,0,0,0.1369,0.1368,0,0.1326,0.1325,0.1325,0.1301,0.1301,0.1301,0.1301,0.1254,0.1253,0.1252,0,0,0,0,0,0,0,0,0,0,0,0,0,0.143,0.1429,0.1369,0.1368,0.1368,0.1326,0.1325,0.1325,0.1301,0.1301,0.1301,0.1301,0.1254,0.1253,0.1251,0,0,0,0,0,0,0,0,0,0,0,0,0,0.1396,0.1428,0.1369,0.1351,0.1349,0.1326,0.1325,0.1324,0.1301,0.1301,0.1301,0.1301,0.1255,0.1253,0.1251,0.1242,0,0,0.1246,0.1245,0,0,0,0,0,0,0,0,0.1398,0.1394,0.1354,0.1352,0.135,0.1319,0.1329,0.1297,0.1301,0.1319,0.1301,0.1301,0.1275,0.1272,0.1264,0.124,0.1237,0.1246,0.1244,0.1244,0.1243,0,0,0,0,0,0,0,0.1401,0.1396,0.1352,0.1354,0.1351,0.1345,0.134,0.1323,0.1298,0.1318,0.1316,0.1311,0.1274,0.1266,0.1263,0.1237,0.1246,0.1244,0.1243,0.1242,0.1204,0.1204,0,0,0,0,0,0,0.1406,0.1398,0.1353,0.135,0.1375,0.1344,0.1338,0.1329,0.1298,0.1294,0.1311,0.131,0.1269,0.1265,0.1261,0.1248,0.1244,0.1242,0.1241,0.1203,0.1204,0.1204,0,0,0,0,0,0,0.1408,0.1402,0.1355,0.1374,0.1367,0.1343,0.1332,0.1328,0.1319,0.1294,0.1289,0.1307,0.1268,0.1263,0.1247,0.1246,0.1241,0.124,0.1203,0.1204,0.1204,0.1223,0,0,0,0,0,0,0.1409,0.1403,0.1399,0.1374,0.1366,0.1342,0.1332,0.1327,0.1317,0.1315,0.1288,0.1284,0.1268,0.125,0.1245,0.1244,0.1238,0.1203,0.1203,0.1204,0.1222,0.1223,0.1225,0,0,0,0,0,0.1412,0.1406,0.1399,0.1394,0.1361,0.1342,0.1338,0.132,0.1317,0.1313,0.1296,0.1285,0.1247,0.1248,0.1243,0.1241,0.1203,0.1203,0.1204,0.1221,0.1223,0.1225,0,0,0,0,0,0,0.143,0.1402,0.1395,0.138,0.1364,0.1338,0.1333,0.1323,0.1306,0.1305,0.1283,0.1278,0.1264,0.1251,0.1252,0.1231,0.1224,0.1223,0.1239,0.1241,0.1242,0.1245,0.1237,0,0,0,0,0,0.1433,0.1421,0.1396,0.1386,0.1378,0.1357,0.1348,0.1336,0.1318,0.1311,0.1293,0.1275,0.126,0.125,0.1234,0.122,0.1214,0.1216,0.1218,0.1219,0.1218,0.1211,0.1211,0.1204,0.1204,0.1204,0,0,0.1438,0.1421,0.1414,0.1389,0.1375,0.1363,0.1351,0.1338,0.1328,0.1308,0.1292,0.1279,0.1258,0.1243,0.1236,0.1232,0.1219,0.1219,0.122,0.1218,0.1211,0.1212,0.1212,0.1204,0.1204,0.1204,0,0,0.1441,0.1427,0.1417,0.1404,0.1383,0.1369,0.1367,0.1343,0.1334,0.1318,0.1303,0.1291,0.1264,0.125,0.1239,0.1238,0.1227,0.1234,0.124,0.1233,0.1234,0.1234,0.1234,0.1234,0.1233,0.1233,0.1233,0,0.1449,0.143,0.1413,0.1401,0.139,0.1374,0.1364,0.1351,0.1326,0.1319,0.1315,0.1282,0.1267,0.1249,0.1249,0.1241,0.1238,0.1236,0.1235,0.1235,0.1236,0.1235,0.1235,0.1234,0.1234,0.1234,0.1234,0,0.1442,0.1429,0.1423,0.1401,0.139,0.1379,0.136,0.1351,0.134,0.1327,0.1311,0.1292,0.1273,0.1268,0.1257,0.1249,0.1247,0.124,0.1232,0.1238,0.1237,0.1237,0.1235,0.1235,0.1235,0.1235,0,0,0.1453,0.1423,0.1421,0.1412,0.1388,0.1378,0.1366,0.1348,0.1341,0.1325,0.1314,0.1293,0.1287,0.1274,0.1262,0.1256,0.1257,0.1249,0.1249,0.1252,0.1247,0.1253,0.1253,0.125,0.125,0.125,0.1249,0,0.1453,0.1432,0.1417,0.1402,0.139,0.1374,0.1364,0.1349,0.1336,0.1324,0.131,0.1295,0.1288,0.1281,0.1274,0.1258,0.1256,0.1258,0.124,0.1239,0.1245,0.1253,0.1258,0.1258,0.1249,0.1249,0.1249,0,0.1448,0.1434,0.1418,0.1398,0.1392,0.1383,0.1366,0.1355,0.1337,0.1328,0.1316,0.1304,0.1291,0.1286,0.1268,0.127,0.1261,0.1253,0.1252,0.1249,0.1244,0.125,0.1258,0.1258,0.1248,0.1248,0.1248,0,0.1459,0.1436,0.1423,0.1415,0.1391,0.1385,0.1374,0.1357,0.1347,0.1332,0.1326,0.1309,0.13,0.1287,0.1271,0.1269,0.1255,0.1248,0.1247,0.1247,0.1244,0.1244,0.1251,0.1239,0.1239,0.1239,0.1239,0,0.1459,0.145,0.1428,0.142,0.141,0.1393,0.1382,0.137,0.1355,0.1345,0.133,0.1321,0.13,0.1288,0.1275,0.1262,0.1258,0.125,0.1247,0.1251,0.1252,0.1245,0.1245,0.1239,0.1239,0.1239,0.1239,0,0.1469,0.1453,0.1439,0.1418,0.1412,0.1405,0.1387,0.1379,0.1366,0.1353,0.1349,0.1329,0.1314,0.1297,0.1276,0.1267,0.1256,0.1251,0.1262,0.126,0.126,0.126,0.1261,0.1261,0.125,0.125,0.1251,0,0.147,0.1463,0.1441,0.1434,0.1424,0.1412,0.1403,0.1386,0.1377,0.1357,0.1352,0.1336,0.1322,0.1299,0.1283,0.1267,0.1261,0.1263,0.1259,0.1264,0.1261,0.1262,0.1261,0.1264,0.1264,0.1264,0.1264,0,0.1474,0.1467,0.1454,0.144,0.1429,0.1416,0.1403,0.1398,0.1378,0.1369,0.1354,0.1344,0.1324,0.1308,0.1291,0.1279,0.1269,0.1266,0.1265,0.1269,0.1276,0.1273,0.1265,0.1266,0.1266,0.1266,0.1266,0.1265,0.1479,0.1472,0.1456,0.1443,0.1432,0.142,0.1412,0.1399,0.1386,0.1369,0.136,0.1346,0.1329,0.1305,0.1294,0.1282,0.1278,0.1277,0.1276,0.1276,0.1278,0.1279,0.1279,0.1279,0.1279,0.1279,0.1279,0,0.1481,0.1471,0.1459,0.1442,0.1432,0.1424,0.1409,0.1401,0.1389,0.1375,0.1362,0.1346,0.1331,0.1314,0.1299,0.1293,0.1287,0.1289,0.1289,0.1287,0.1282,0.1284,0.1294,0.1294,0.1294,0.1294,0.1294,0.1294,0.1482,0.147,0.1462,0.1445,0.1434,0.142,0.1413,0.1402,0.1391,0.1373,0.1362,0.1351,0.1336,0.1319,0.1306,0.1301,0.1296,0.1299,0.1293,0.1288,0.1287,0.1286,0.1288,0.1298,0.1298,0.1299,0.1299,0.1299]},{"header":{"parameterUnit":"m.s-1","parameterCategory":1,"la1":30.2991,"la2":30.254,"lo1":-89.0895,"lo2":-89.0444,"dy":0.0017,"dx":0.0017,"nx":28,"ny":28,"refTime":"2024-03-01T09:00:00:Z","depth":0,"parameterNumber":3,"parameterNumberName":"V-component_of_WINDS"},"data":[0,0,0,0,0,0,0,0,0,0,0,0,0,0,0,0,0,0,0,0,0,0,0,0,0,0,0,0,0,0,0,0,0,0,0,0,0,0,0,0,0,0,0,0,0,0,0,0,0,0,0,0,0,0,0,0,0,0,-3.0876,-3.0877,0,-3.0941,-3.0942,-3.0943,-3.0941,-3.094,-3.094,-3.0939,-3.1001,-3.1003,-3.1006,0,0,0,0,0,0,0,0,0,0,0,0,0,-3.0746,-3.0748,-3.0876,-3.0877,-3.0877,-3.0941,-3.0942,-3.0943,-3.0941,-3.094,-3.0939,-3.0938,-3.1,-3.1003,-3.1006,0,0,0,0,0,0,0,0,0,0,0,0,0,-3.0806,-3.0749,-3.0876,-3.0885,-3.0886,-3.0941,-3.0942,-3.0943,-3.0942,-3.094,-3.0939,-3.0938,-3.0999,-3.1003,-3.1006,-3.1055,0,0,-3.1018,-3.1019,0,0,0,0,0,0,0,0,-3.0802,-3.081,-3.0882,-3.0884,-3.0886,-3.0932,-3.0919,-3.098,-3.0942,-3.092,-3.0939,-3.0937,-3.0979,-3.0984,-3.0999,-3.1058,-3.1061,-3.1018,-3.102,-3.1022,-3.1023,0,0,0,0,0,0,0,-3.0798,-3.0807,-3.0901,-3.0883,-3.0886,-3.0884,-3.0891,-3.093,-3.0956,-3.0922,-3.0922,-3.093,-3.0979,-3.0995,-3.1,-3.1062,-3.1018,-3.1021,-3.1023,-3.1025,-3.1164,-3.1166,0,0,0,0,0,0,-3.0793,-3.0804,-3.0899,-3.0903,-3.084,-3.0887,-3.0895,-3.0918,-3.0955,-3.096,-3.0931,-3.093,-3.099,-3.0996,-3.1003,-3.1062,-3.1022,-3.1025,-3.1027,-3.1163,-3.1165,-3.1166,0,0,0,0,0,0,-3.079,-3.0801,-3.0897,-3.0854,-3.0866,-3.0891,-3.0917,-3.092,-3.0936,-3.0962,-3.0966,-3.0943,-3.0989,-3.0997,-3.1043,-3.1065,-3.1027,-3.103,-3.1161,-3.1163,-3.1165,-3.1182,0,0,0,0,0,0,-3.0786,-3.08,-3.082,-3.0854,-3.0868,-3.0937,-3.0918,-3.0922,-3.0943,-3.0942,-3.0975,-3.0979,-3.0989,-3.1037,-3.1046,-3.1069,-3.1033,-3.1159,-3.1162,-3.1165,-3.118,-3.1185,-3.1189,0,0,0,0,0,-3.0781,-3.0821,-3.0821,-3.0833,-3.0894,-3.0938,-3.0946,-3.0958,-3.0945,-3.0965,-3.0981,-3.0978,-3.1061,-3.1042,-3.1052,-3.1076,-3.1158,-3.1161,-3.1165,-3.1178,-3.1184,-3.1189,0,0,0,0,0,0,-3.0787,-3.0826,-3.0826,-3.0878,-3.0905,-3.0938,-3.0963,-3.0964,-3.0993,-3.0991,-3.1003,-3.101,-3.1055,-3.107,-3.1048,-3.1125,-3.1107,-3.1113,-3.1114,-3.112,-3.1125,-3.112,-3.1036,0,0,0,0,0,-3.0794,-3.0829,-3.086,-3.0903,-3.0917,-3.0938,-3.0957,-3.0964,-3.0992,-3.1003,-3.1023,-3.1049,-3.108,-3.1101,-3.1132,-3.1182,-3.1189,-3.1204,-3.1208,-3.1212,-3.1217,-3.1244,-3.1251,-3.1177,-3.1177,-3.1177,0,0,-3.081,-3.0835,-3.0856,-3.0905,-3.0927,-3.0961,-3.0947,-3.0984,-3.1009,-3.1008,-3.1052,-3.1068,-3.1097,-3.1145,-3.1168,-3.1159,-3.1239,-3.1216,-3.1219,-3.1222,-3.1248,-3.1255,-3.1262,-3.1179,-3.1179,-3.1179,0,0,-3.0855,-3.0878,-3.0917,-3.0939,-3.0973,-3.0987,-3.0996,-3.1029,-3.104,-3.1085,-3.1085,-3.1114,-3.1169,-3.119,-3.1208,-3.1262,-3.126,-3.1272,-3.1295,-3.1322,-3.1328,-3.1333,-3.1352,-3.1359,-3.1276,-3.1276,-3.1276,0,-3.087,-3.0923,-3.0936,-3.0974,-3.0995,-3.0997,-3.1036,-3.1056,-3.1097,-3.1111,-3.1102,-3.1171,-3.1191,-3.1244,-3.1258,-3.1272,-3.1282,-3.1268,-3.1326,-3.1332,-3.1337,-3.1355,-3.1362,-3.1277,-3.1277,-3.1277,-3.1277,0,-3.0939,-3.0975,-3.1002,-3.1044,-3.1068,-3.1106,-3.1124,-3.1146,-3.1151,-3.1165,-3.1211,-3.1235,-3.1271,-3.1284,-3.1288,-3.1338,-3.1332,-3.1324,-3.1306,-3.1345,-3.1362,-3.137,-3.1279,-3.1279,-3.1278,-3.1278,0,0,-3.0989,-3.1039,-3.1048,-3.1067,-3.1105,-3.1133,-3.117,-3.1207,-3.1226,-3.1254,-3.1285,-3.1332,-3.1326,-3.1346,-3.1352,-3.1376,-3.1417,-3.1365,-3.1366,-3.1374,-3.1473,-3.1478,-3.1486,-3.1416,-3.1417,-3.1419,-3.147,0,-3.1038,-3.1107,-3.112,-3.1179,-3.1213,-3.1216,-3.1248,-3.1274,-3.1288,-3.1318,-3.1333,-3.1366,-3.1355,-3.1367,-3.1391,-3.1407,-3.1437,-3.1404,-3.1444,-3.1445,-3.1437,-3.1496,-3.1501,-3.1549,-3.1477,-3.1479,-3.1479,0,-3.1105,-3.1137,-3.12,-3.1234,-3.1248,-3.1278,-3.1312,-3.1341,-3.137,-3.1379,-3.1402,-3.1406,-3.1443,-3.1424,-3.1476,-3.1453,-3.147,-3.148,-3.1482,-3.1486,-3.1464,-3.1501,-3.1565,-3.1572,-3.149,-3.1489,-3.1489,0,-3.1136,-3.1194,-3.124,-3.1256,-3.1296,-3.1317,-3.1334,-3.1362,-3.1383,-3.1413,-3.1427,-3.146,-3.1478,-3.1503,-3.1515,-3.15,-3.1566,-3.1548,-3.1573,-3.1573,-3.1587,-3.1586,-3.1654,-3.1598,-3.1598,-3.1598,-3.1598,0,-3.119,-3.1228,-3.1254,-3.1282,-3.1324,-3.1339,-3.138,-3.1397,-3.1422,-3.1452,-3.1456,-3.1483,-3.1498,-3.1528,-3.1538,-3.1579,-3.1587,-3.1594,-3.1596,-3.1594,-3.1593,-3.1605,-3.1602,-3.16,-3.1599,-3.1599,-3.1599,0,-3.1231,-3.125,-3.13,-3.1334,-3.1344,-3.1374,-3.1403,-3.1429,-3.1443,-3.1481,-3.1491,-3.1513,-3.1549,-3.1564,-3.1606,-3.1613,-3.166,-3.1659,-3.1651,-3.1651,-3.1676,-3.1673,-3.1754,-3.1765,-3.1702,-3.1703,-3.1703,0,-3.1264,-3.1294,-3.1332,-3.1354,-3.1372,-3.1406,-3.1429,-3.1444,-3.1466,-3.1502,-3.1524,-3.1559,-3.1589,-3.1644,-3.1663,-3.1696,-3.1696,-3.1722,-3.1701,-3.1698,-3.1696,-3.1695,-3.1697,-3.1726,-3.1727,-3.1727,-3.1728,0,-3.1321,-3.1329,-3.1362,-3.1399,-3.1426,-3.1454,-3.1483,-3.1499,-3.1518,-3.1544,-3.1581,-3.1604,-3.1648,-3.1683,-3.1717,-3.1733,-3.1733,-3.1734,-3.1742,-3.174,-3.1733,-3.1737,-3.1661,-3.1732,-3.1732,-3.1732,-3.1731,-3.1731,-3.1359,-3.1385,-3.1417,-3.1454,-3.1477,-3.1503,-3.153,-3.1549,-3.1581,-3.1619,-3.1626,-3.1665,-3.1693,-3.1739,-3.1756,-3.1786,-3.1779,-3.179,-3.1793,-3.1796,-3.1797,-3.1729,-3.1792,-3.1792,-3.1792,-3.1792,-3.1792,0,-3.1416,-3.1437,-3.147,-3.1511,-3.1539,-3.1539,-3.157,-3.1593,-3.1629,-3.1655,-3.1685,-3.1727,-3.1761,-3.1783,-3.1817,-3.1837,-3.1838,-3.1845,-3.1844,-3.1847,-3.1801,-3.1791,-3.1844,-3.1844,-3.1844,-3.1844,-3.1844,-3.1844,-3.1449,-3.1494,-3.1506,-3.1563,-3.1583,-3.1623,-3.1641,-3.1665,-3.1686,-3.1734,-3.1763,-3.1778,-3.1803,-3.1839,-3.1869,-3.1875,-3.1887,-3.1895,-3.19,-3.1856,-3.1851,-3.1845,-3.1836,-3.1897,-3.1898,-3.1944,-3.1944,-3.1944]}]]